Location: Unspecified
(51.0000°N, 12.0000°E)
Time: 16:58:27
(UTC+01:00)

ISS - Pass Details

Date: 17 November 2017
Orbit: 402 x 407 km, 51.6° (Epoch: 20 November)

Event Time Altitude Azimuth Distance (km) Brightness Sun altitude
Exits shadow 04:48:26 12° 151° (SSE) 1,343 -0.9 -25.4°
Drops below altitude 10° 04:48:44 10° 148° (SSE) 1,451 -0.7 -25.3°
Sets 04:50:57 0° 138° (SE) 2,307 0.6 -25.0°
